Regional Weather Roundup
Issued by NWS Spokane, WA

Home | Current Version | Previous Version | Text Only | Print | Product List | Glossary On
Versions: 1 2 3 4 5 6 7 8 9 10 11 12 13 14 15 16 17 18 19 20 21 22 23 24 25 26 27 28 29 30 31 32 33 34 35 36 37 38 39 40 41 42 43 44 45 46 47 48 49 50
000
NZUS01 KOTX 252325
RWROTX

Eastern Washington/Northern Idaho Roundup
National Weather Service, Spokane WA
400 PM PDT TUE JUL 25 2017

Note: "fair" indicated few or no clouds below 12,000 feet with no
significant weather and/or obstructions to visibility.

...Northeast Washington and Northern Idaho Panhandle...

CITY           SKY/WX    TMP DP  RH WIND       PRES   REMARKS
Spokane Intl   MOSUNNY   87  33  14 S8G18     29.99F
Spokane Downto SUNNY     91  35  13 W7        29.97F
Coeur d Alene  SUNNY     88  38  17 VRB6      29.99F
Deer Park      SUNNY     88  31  13 SW6       29.98F
Sandpoint      SUNNY     88  34  14 SW7       29.97S
Bonners Ferry  FAIR      86  39  19 SW5       29.97F

...Southeast Washington and southern Idaho Panhandle...

CITY           SKY/WX    TMP DP  RH WIND       PRES   REMARKS
Walla Walla    SUNNY     93  40  15 VRB3      29.91F
Pullman/Moscow SUNNY     89  36  15 W12       30.01F
Lewiston       SUNNY     95  35  12 SW3       29.91F HX  90
Lowell           N/A     96  42  15 VRB3      29.88F HX  92
Grangeville    FAIR      88  32  13 N7        30.01F

...Columbia Basin...

CITY           SKY/WX    TMP DP  RH WIND       PRES   REMARKS
Ephrata        SUNNY     92  37  14 VRB6      29.93F
Moses Lake     SUNNY     93  38  14 W8        29.94F
Pasco          SUNNY     96  40  14 VRB5      29.89F HX  92
Richland       CLEAR     97  41  14 N5        29.88F HX  93
Hermiston      SUNNY     97  38  13 NW6       29.88F HX  92
Pendleton      SUNNY     95  31  10 CALM      29.92F

...East Slopes Cascades...

CITY           SKY/WX    TMP DP  RH WIND       PRES   REMARKS
The Dalles     SUNNY     98  47  17 VRB5      29.86F HX  94
Yakima         SUNNY     95  40  14 SE5       29.92F HX  91
Ellensburg     SUNNY     94  44  17 MISG      29.96F HX  90
Stampede Pass  SUNNY     76  51  41 VRB6      30.13S
Wenatchee      SUNNY     93  38  14 N7        29.92F
Omak           MOSUNNY   91  33  12 W5        29.94F
Chelan           N/A     90  36  14 MISG        N/A
Sunnyside        N/A     90  48  23 CALM      29.90F

...Southern British Columbia...

CITY           SKY/WX    TMP DP  RH WIND       PRES   REMARKS
Penticton      SUNNY     86  46  25 NW7       29.94F
Castlegar      MOSUNNY   90  21   8 VRB6      29.95F
Cranbrook      MOSUNNY   86  34  15 NE7       30.00F
Osoyoos          N/A     90  36  14 NW2         N/A
Creston          N/A     86  46  25 W6          N/A

...Western Montana...

CITY           SKY/WX    TMP DP  RH WIND       PRES   REMARKS
Kalispell      CLEAR     85  37  18 CALM      29.99F
Libby            N/A     90  34  13 E8        29.95F
Missoula       SUNNY     91  31  11 N13       29.96F

...Neighboring Cities...

CITY           SKY/WX    TMP DP  RH WIND       PRES   REMARKS
Seattle        SUNNY     84  51  31 NW12      30.01F
Portland       MOSUNNY   88  56  33 VRB7      29.95F
Boise          SUNNY     93  48  21 NW13      29.94F
Great Falls    SUNNY     83  37  19 NE9       30.04F
Calgary        MOSUNNY   73  43  33 E6        30.10S



USA.gov is the U.S. government's official web portal to all federal, state and local government web resources and services.